"Platform","Saginaw Bay ReCON Buoy"
"NDBC ID","45163"
"Latitude (deg)",43.98440
"Longitude (deg)",-83.59753
"Water Depth (m)",12.7
"Sensor Device","AirMar Weather Station Model 200WX"
"Sensor Serial No.","60221354"
"Sensor Height","2.5 meters above water surface"
"Sensor Type","Sensor X acceleration"
"Sensor Units","degrees per second"
"Measurement","2 minute average of data samples taken at 5 second interval"
"Time means","Time at end of averaging period (UTC time zone)"

"Note:","This data was collected for research purposes."
"Note:","Minimal quality checking has been performed so data may contain known or unknown errors."
"Note:","Data provided by NOAA. Please credit NOAA."
"Note:","For more info see www.glerl.noaa.gov/res/recon"

"Time (UTC)","X Acceleration"
"YYYY/MM/DD HH:MM","deg/sec"
2024/05/16 00:04, 0.2464166
2024/05/16 00:06, 0.2469167
2024/05/16 00:08, 0.2468333
2024/05/16 00:10, 0.2467917
2024/05/16 00:12, 0.246875
2024/05/16 00:14, 0.2469167
2024/05/16 00:16, 0.246875
2024/05/16 00:18, 0.2465833
2024/05/16 00:20, 0.247
2024/05/16 00:22, 0.2472083
2024/05/16 00:24, 0.2471666
2024/05/16 00:26, 0.24725
2024/05/16 00:28, 0.24775
2024/05/16 00:30, 0.247125
2024/05/16 00:32, 0.2472083
2024/05/16 00:34, 0.2477916
2024/05/16 00:36, 0.2479583
2024/05/16 00:38, 0.2477916
2024/05/16 00:40, 0.2476667
2024/05/16 00:42, 0.24775
2024/05/16 00:44, 0.2477916
2024/05/16 00:46, 0.248
2024/05/16 00:48, 0.2480833
2024/05/16 00:50, 0.2479167
2024/05/16 00:52, 0.248125
2024/05/16 00:54, 0.2482917
2024/05/16 00:56, 0.2479565
2024/05/16 00:58, 0.24775
2024/05/16 01:00, 0.2479583
2024/05/16 01:02, 0.2480416
2024/05/16 01:04, 0.2480833
2024/05/16 01:06, 0.2482083
2024/05/16 01:08, 0.24825
2024/05/16 01:10, 0.248
2024/05/16 01:12, 0.2482083
2024/05/16 01:14, 0.2484583
2024/05/16 01:16, 0.2485909
2024/05/16 01:18, 0.248625
2024/05/16 01:20, 0.2485
2024/05/16 01:22, 0.2482917
2024/05/16 01:24, 0.2485417
2024/05/16 01:26, 0.248625
2024/05/16 01:28, 0.2485417
2024/05/16 01:30, 0.2484583
2024/05/16 01:32, 0.2485
2024/05/16 01:34, 0.2482083
2024/05/16 01:36, 0.2487273
2024/05/16 01:38, 0.2489166
2024/05/16 01:40, 0.2489583
2024/05/16 01:42, 0.2488333
2024/05/16 01:44, 0.2487083
2024/05/16 01:46, 0.24875
2024/05/16 01:48, 0.2487916
2024/05/16 01:50, 0.248875
2024/05/16 01:52, 0.248875
2024/05/16 01:54, 0.2489583
2024/05/16 01:56, 0.249
2024/05/16 01:58, 0.2489166
2024/05/16 02:00, 0.2489583
2024/05/16 02:02, 0.2490417
2024/05/16 02:04, 0.249
2024/05/16 02:06, 0.2473333
2024/05/16 02:08, 0.2483333
2024/05/16 02:10, 0.2489166
2024/05/16 02:12, 0.249125
2024/05/16 02:14, 0.2490417
2024/05/16 02:16, 0.249
2024/05/16 02:18, 0.2488333
2024/05/16 02:20, 0.2489583
2024/05/16 02:22, 0.249
2024/05/16 02:24, 0.2489583
2024/05/16 02:26, 0.2490833
2024/05/16 02:28, 0.249125
2024/05/16 02:30, 0.2489166
2024/05/16 02:32, 0.2490417
2024/05/16 02:34, 0.24925
2024/05/16 02:36, 0.2491667
2024/05/16 02:38, 0.249
2024/05/16 02:40, 0.2489583
2024/05/16 02:42, 0.248875
2024/05/16 02:44, 0.2489583
2024/05/16 02:46, 0.249
2024/05/16 02:48, 0.2490417
2024/05/16 02:50, 0.2490833
2024/05/16 02:52, 0.249125
2024/05/16 02:54, 0.2490417
2024/05/16 02:56, 0.2492727
2024/05/16 02:58, 0.2492083
2024/05/16 03:00, 0.2492083
2024/05/16 03:02, 0.2490833
2024/05/16 03:04, 0.2492083
2024/05/16 03:06, 0.24925
2024/05/16 03:08, 0.24925
2024/05/16 03:10, 0.2496666
2024/05/16 03:12, 0.2494166
2024/05/16 03:14, 0.2490417
2024/05/16 03:16, 0.2491818
2024/05/16 03:18, 0.2492917
2024/05/16 03:20, 0.249125
2024/05/16 03:22, 0.2490833
2024/05/16 03:24, 0.249125
2024/05/16 03:26, 0.2496666
2024/05/16 03:28, 0.2495
2024/05/16 03:30, 0.249625
2024/05/16 03:32, 0.2495833
2024/05/16 03:34, 0.2494166
2024/05/16 03:36, 0.2496364
2024/05/16 03:38, 0.2495
2024/05/16 03:40, 0.2495417
2024/05/16 03:42, 0.249375
2024/05/16 03:44, 0.2495833
2024/05/16 03:46, 0.249875
2024/05/16 03:48, 0.24975
2024/05/16 03:50, 0.2495833
2024/05/16 03:52, 0.2496666
2024/05/16 03:54, 0.2495417
2024/05/16 03:56, 0.2498182
2024/05/16 03:58, 0.2495833
2024/05/16 04:00, 0.2497917
2024/05/16 04:02, 0.2494166
2024/05/16 04:04, 0.2494583
2024/05/16 04:06, 0.2497083
2024/05/16 04:08, 0.249625
2024/05/16 04:10, 0.2497917
2024/05/16 04:12, 0.249875
2024/05/16 04:14, 0.249875
2024/05/16 04:16, 0.2499545
2024/05/16 04:18, 0.249875
2024/05/16 04:20, 0.2499167
2024/05/16 04:22, 0.2499167
2024/05/16 04:24, 0.2499167
2024/05/16 04:26, 0.249875
2024/05/16 04:28, 0.2497917
2024/05/16 04:30, 0.2498333
2024/05/16 04:32, 0.249875
2024/05/16 04:34, 0.2497917
2024/05/16 04:36, 0.2494783
2024/05/16 04:38, 0.2495
2024/05/16 04:40, 0.24925
2024/05/16 04:42, 0.2495833
2024/05/16 04:44, 0.2496666
2024/05/16 04:46, 0.249375
2024/05/16 04:48, 0.249375
2024/05/16 04:50, 0.2494166
2024/05/16 04:52, 0.2495
2024/05/16 04:54, 0.2493333
2024/05/16 04:56, 0.2495909
2024/05/16 04:58, 0.2495833
2024/05/16 05:00, 0.2497917
2024/05/16 05:02, 0.2497917
2024/05/16 05:04, 0.24975
2024/05/16 05:06, 0.2499583
2024/05/16 05:08, 0.2496666
2024/05/16 05:10, 0.2497917
2024/05/16 05:12, 0.2497083
2024/05/16 05:14, 0.2500417
2024/05/16 05:16, 0.2498182
2024/05/16 05:18, 0.2499583
2024/05/16 05:20, 0.2497917
2024/05/16 05:22, 0.249875
2024/05/16 05:24, 0.2497083
2024/05/16 05:26, 0.24975
2024/05/16 05:28, 0.249875
2024/05/16 05:30, 0.2499167
2024/05/16 05:32, 0.2497917
2024/05/16 05:34, 0.2496666
2024/05/16 05:36, 0.2499545
2024/05/16 05:38, 0.2499583
2024/05/16 05:40, 0.249875
2024/05/16 05:42, 0.2497917
2024/05/16 05:44, 0.2497083
2024/05/16 05:46, 0.2495833
2024/05/16 05:48, 0.2496666
2024/05/16 05:50, 0.2499167
2024/05/16 05:52, 0.24975
2024/05/16 05:54, 0.249625
2024/05/16 05:56, 0.2497727
2024/05/16 05:58, 0.249875
2024/05/16 06:00, 0.2500417
2024/05/16 06:02, 0.2500417
2024/05/16 06:04, 0.2499583
2024/05/16 06:06, 0.249875
2024/05/16 06:08, 0.2498333
2024/05/16 06:10, 0.25
2024/05/16 06:12, 0.249875
2024/05/16 06:14, 0.2499583
2024/05/16 06:16, 0.2499091
2024/05/16 06:18, 0.2499167
2024/05/16 06:20, 0.2499167
2024/05/16 06:22, 0.25
2024/05/16 06:24, 0.25
2024/05/16 06:26, 0.25
2024/05/16 06:28, 0.249875
2024/05/16 06:30, 0.2499583
2024/05/16 06:32, 0.2499583
2024/05/16 06:34, 0.2500417
2024/05/16 06:36, 0.2499091
2024/05/16 06:38, 0.2498333
2024/05/16 06:40, 0.2498333
2024/05/16 06:42, 0.25
2024/05/16 06:44, 0.2499583
2024/05/16 06:46, 0.2499167
2024/05/16 06:48, 0.25
2024/05/16 06:50, 0.25
2024/05/16 06:52, 0.2500417
2024/05/16 06:54, 0.2499583
2024/05/16 06:56, 0.2499545
2024/05/16 06:58, 0.24975
2024/05/16 07:00, 0.249625
2024/05/16 07:02, 0.25
2024/05/16 07:04, 0.25
2024/05/16 07:06, 0.25
2024/05/16 07:08, 0.25
2024/05/16 07:10, 0.2499583
2024/05/16 07:12, 0.25
2024/05/16 07:14, 0.2499583
2024/05/16 07:16, 0.2499545
2024/05/16 07:18, 0.249875
2024/05/16 07:20, 0.2496666
2024/05/16 07:22, 0.2499583
2024/05/16 07:24, 0.2499583
2024/05/16 07:26, 0.25
2024/05/16 07:28, 0.2499583
2024/05/16 07:30, 0.249875
2024/05/16 07:32, 0.25
2024/05/16 07:34, 0.25
2024/05/16 07:36, 0.2500454
2024/05/16 07:38, 0.25
2024/05/16 07:40, 0.2501667
2024/05/16 07:42, 0.2499583
2024/05/16 07:44, 0.25
2024/05/16 07:46, 0.25
2024/05/16 07:48, 0.25
2024/05/16 07:50, 0.25
2024/05/16 07:52, 0.25
2024/05/16 07:54, 0.2499583
2024/05/16 07:56, 0.25
2024/05/16 07:58, 0.2501667
2024/05/16 08:00, 0.250125
2024/05/16 08:02, 0.2500833
2024/05/16 08:04, 0.2502083
2024/05/16 08:06, 0.25025
2024/05/16 08:08, 0.2501667
2024/05/16 08:10, 0.2502083
2024/05/16 08:12, 0.25025
2024/05/16 08:14, 0.250125
2024/05/16 08:16, 0.2501363
2024/05/16 08:18, 0.2504167
2024/05/16 08:20, 0.250125
2024/05/16 08:22, 0.25
2024/05/16 08:24, 0.250125
2024/05/16 08:26, 0.2500833
2024/05/16 08:28, 0.25
2024/05/16 08:30, 0.2499583
2024/05/16 08:32, 0.2502083
2024/05/16 08:34, 0.25
2024/05/16 08:36, 0.25
2024/05/16 08:38, 0.25
2024/05/16 08:40, 0.2499583
2024/05/16 08:42, 0.25
2024/05/16 08:44, 0.25
2024/05/16 08:46, 0.25
2024/05/16 08:48, 0.2505417
2024/05/16 08:50, 0.2501667
2024/05/16 08:52, 0.25025
2024/05/16 08:54, 0.250125
2024/05/16 08:56, 0.2500909
2024/05/16 08:58, 0.2500417
2024/05/16 09:00, 0.2502916
2024/05/16 09:02, 0.2500833
2024/05/16 09:04, 0.25
2024/05/16 09:06, 0.2502916
2024/05/16 09:08, 0.2503333
2024/05/16 09:10, 0.2500417
2024/05/16 09:12, 0.2500417
2024/05/16 09:14, 0.2500833
2024/05/16 09:16, 0.2504545
2024/05/16 09:18, 0.250125
2024/05/16 09:20, 0.250125
2024/05/16 09:22, 0.2503333
2024/05/16 09:24, 0.2502083
2024/05/16 09:26, 0.2505
2024/05/16 09:28, 0.2502083
2024/05/16 09:30, 0.2501667
2024/05/16 09:32, 0.2500417
2024/05/16 09:34, 0.2500417
2024/05/16 09:36, 0.2501363
2024/05/16 09:38, 0.2500833
2024/05/16 09:40, 0.2500417
2024/05/16 09:42, 0.2502083
2024/05/16 09:44, 0.2500417
2024/05/16 09:46, 0.2499583
2024/05/16 09:48, 0.2499583
2024/05/16 09:50, 0.2501667
2024/05/16 09:52, 0.2502916
2024/05/16 09:54, 0.2498333
2024/05/16 09:56, 0.2495454
2024/05/16 09:58, 0.2496666
2024/05/16 10:00, 0.2479583
2024/05/16 10:02, 0.2478333
2024/05/16 10:04, 0.2478333
2024/05/16 10:06, 0.2478333
2024/05/16 10:08, 0.2483333
2024/05/16 10:10, 0.248
2024/05/16 10:12, 0.248625
2024/05/16 10:14, 0.249
2024/05/16 10:16, 0.2485909
2024/05/16 10:18, 0.2485
2024/05/16 10:20, 0.24975
2024/05/16 10:22, 0.2499167
2024/05/16 10:24, 0.2504167
2024/05/16 10:26, 0.25425
2024/05/16 10:28, 0.2706667
2024/05/16 10:30, 0.31225
2024/05/16 10:32, 0.3275833
2024/05/16 10:34, 0.3335833
2024/05/16 10:36, 0.3330416
2024/05/16 10:38, 0.3347917
2024/05/16 10:40, 0.3318333
2024/05/16 10:42, 0.3362083
2024/05/16 10:44, 0.330125
2024/05/16 10:46, 0.330625
2024/05/16 10:48, 0.3326667
2024/05/16 10:50, 0.3322917
2024/05/16 10:52, 0.333875
2024/05/16 10:54, 0.3299167
2024/05/16 10:56, 0.3304166
2024/05/16 10:58, 0.3342917
2024/05/16 11:00, 0.3287916
2024/05/16 11:02, 0.3287916
2024/05/16 11:04, 0.3317917
2024/05/16 11:06, 0.3322083
2024/05/16 11:08, 0.328625
2024/05/16 11:10, 0.3274583
2024/05/16 11:12, 0.3309583
2024/05/16 11:14, 0.329
2024/05/16 11:16, 0.3306667
2024/05/16 11:18, 0.33325
2024/05/16 11:20, 0.332125
2024/05/16 11:22, 0.334125
2024/05/16 11:24, 0.3357916
2024/05/16 11:26, 0.3327083
2024/05/16 11:28, 0.3304166
2024/05/16 11:30, 0.331625
2024/05/16 11:32, 0.3300417
2024/05/16 11:34, 0.3296666
2024/05/16 11:36, 0.3319167
2024/05/16 11:38, 0.3319583
2024/05/16 11:40, 0.3325833
2024/05/16 11:42, 0.332375
2024/05/16 11:44, 0.3325
2024/05/16 11:46, 0.3307917
2024/05/16 11:48, 0.3280416
2024/05/16 11:50, 0.3345
2024/05/16 11:52, 0.333375
2024/05/16 11:54, 0.3343333
2024/05/16 11:56, 0.3337916
2024/05/16 11:58, 0.333
2024/05/16 12:00, 0.3333333
2024/05/16 12:02, 0.3365
2024/05/16 12:04, 0.3330416
2024/05/16 12:06, 0.3334583
2024/05/16 12:08, 0.3319583
2024/05/16 12:10, 0.33475
2024/05/16 12:12, 0.3336667
2024/05/16 12:14, 0.332125
2024/05/16 12:16, 0.339125
2024/05/16 12:18, 0.3347083
2024/05/16 12:20, 0.328875
2024/05/16 12:22, 0.3357083
2024/05/16 12:24, 0.3360416
2024/05/16 12:26, 0.339875
2024/05/16 12:28, 0.33925
2024/05/16 12:30, 0.33625
2024/05/16 12:32, 0.3355416
2024/05/16 12:34, 0.3380417
2024/05/16 12:36, 0.3409166
2024/05/16 12:38, 0.3417916
2024/05/16 12:40, 0.3370416
2024/05/16 12:42, 0.3387916
2024/05/16 12:44, 0.3428333
2024/05/16 12:46, 0.3392083
2024/05/16 12:48, 0.33975
2024/05/16 12:50, 0.3389583
2024/05/16 12:52, 0.3375
2024/05/16 12:54, 0.3424166
2024/05/16 12:56, 0.3423333
2024/05/16 12:58, 0.3379166
2024/05/16 13:00, 0.34225
2024/05/16 13:02, 0.3414166
2024/05/16 13:04, 0.3410416
2024/05/16 13:06, 0.3372916
2024/05/16 13:08, 0.3387916
2024/05/16 13:10, 0.3459166
2024/05/16 13:12, 0.3394583
2024/05/16 13:14, 0.3425
2024/05/16 13:16, 0.340625
2024/05/16 13:18, 0.3425417
2024/05/16 13:20, 0.3428333
2024/05/16 13:22, 0.3415
2024/05/16 13:24, 0.1786429
2024/05/16 13:26, -0.3512083
2024/05/16 13:28, -0.355
2024/05/16 13:30, -0.357875
2024/05/16 13:32, -0.3421667
2024/05/16 13:34, -0.3441666
2024/05/16 13:36, -0.35125
2024/05/16 13:38, -0.3562083
2024/05/16 13:40, -0.3657916
2024/05/16 13:42, -0.3809166
2024/05/16 13:44, -0.3942916
2024/05/16 13:46, -0.3894583
2024/05/16 13:48, -0.3778333
2024/05/16 13:50, -0.3719583
2024/05/16 13:52, -0.3619583
2024/05/16 13:54, -0.3700833
2024/05/16 13:56, -0.3800416
2024/05/16 13:58, -0.359125
2024/05/16 14:00, -0.3564583
2024/05/16 14:02, -0.3426666
2024/05/16 14:04, -0.3514583
2024/05/16 14:06, -0.3449167
2024/05/16 14:08, -0.3532916
2024/05/16 14:10, -0.346125
2024/05/16 14:12, -0.35
2024/05/16 14:14, -0.35575
2024/05/16 14:16, -0.3417916
2024/05/16 14:18, -0.3556666
2024/05/16 14:20, -0.3639583
2024/05/16 14:22, -0.377375
2024/05/16 14:24, -0.3755833
2024/05/16 14:26, -0.4110416
2024/05/16 14:28, -0.338625
2024/05/16 14:30, -0.417875
2024/05/16 14:32, -0.3348333
2024/05/16 14:34, -0.3111667
2024/05/16 14:36, -0.3183333
2024/05/16 14:38, -0.3695416
2024/05/16 14:40, -0.3388333
2024/05/16 14:42, -0.337625
2024/05/16 14:44, -0.3449167
2024/05/16 14:46, -0.33125
2024/05/16 14:48, -0.3619167
2024/05/16 14:50, -0.3712083
2024/05/16 14:52, -0.3765
2024/05/16 14:54, -0.378
2024/05/16 14:56, -0.3744583
2024/05/16 14:58, -0.3807917
2024/05/16 15:00, -0.3909583
2024/05/16 15:02, -0.7510417
2024/05/16 15:04, -0.565125
2024/05/16 15:06, -0.236875
2024/05/16 15:08, -0.03354166
2024/05/16 15:10, -0.04708333
2024/05/16 15:12, -0.04854166
2024/05/16 15:14, -0.05166666
2024/05/16 15:16, -0.036125
2024/05/16 15:18, -0.0725
2024/05/16 15:20, -0.03975
2024/05/16 15:22, -0.03945833
2024/05/16 15:24, -0.03179166
2024/05/16 15:26, -0.06479166
2024/05/16 15:28, -0.06675
2024/05/16 15:30, -0.03758333
2024/05/16 15:32, -0.03545833
2024/05/16 15:34, -0.044375
2024/05/16 15:36, -0.01966667
2024/05/16 15:38, -0.03741666
2024/05/16 15:40, -0.045
2024/05/16 15:42, -0.003041667
2024/05/16 15:44, -0.01966667
2024/05/16 15:46, -0.04695833
2024/05/16 15:48, -0.03129167
2024/05/16 15:50, -0.037875
2024/05/16 15:52, -0.002541667
2024/05/16 15:54, -0.017875
2024/05/16 15:56, -0.047875
2024/05/16 15:58, -0.02804167
2024/05/16 16:00, -0.037
2024/05/16 16:02, -0.049
2024/05/16 16:04, -0.042375
2024/05/16 16:06, -0.03520833
2024/05/16 16:08, -0.04616666
2024/05/16 16:10, -0.03254167
2024/05/16 16:12, -0.0305
2024/05/16 16:14, -0.04925
2024/05/16 16:16, -0.03941667
2024/05/16 16:18, -0.02966666
2024/05/16 16:20, -0.030375
2024/05/16 16:22, -0.04045833
2024/05/16 16:24, -0.06458333
2024/05/16 16:26, -0.02525
2024/05/16 16:28, -0.033
2024/05/16 16:30, -0.02745833
2024/05/16 16:32, -0.01916667
2024/05/16 16:34, -0.026
2024/05/16 16:36, -0.004583333
2024/05/16 16:38, -0.04245833
2024/05/16 16:40, -0.015
2024/05/16 16:42, -0.007124999
2024/05/16 16:44, -0.03433333
2024/05/16 16:46, -0.03104167
2024/05/16 16:48, -0.0105
2024/05/16 16:50, -0.043125
2024/05/16 16:52, -0.05508333
2024/05/16 16:54, -0.03695833
2024/05/16 16:56, -0.02516667
2024/05/16 16:58, -0.02345833
2024/05/16 17:00, -0.03441666
2024/05/16 17:02, -0.03370833
2024/05/16 17:04, -0.03704167
2024/05/16 17:06, -0.05816666
2024/05/16 17:08, -0.02125
2024/05/16 17:10, 0.007749999
2024/05/16 17:12, -0.03066667
2024/05/16 17:14, -0.01179167
2024/05/16 17:16, -0.004666666
2024/05/16 17:18, -0.03454166
2024/05/16 17:20, -0.04454166
2024/05/16 17:22, -0.04045833
2024/05/16 17:24, -0.02229167
2024/05/16 17:26, -0.04591666
2024/05/16 17:28, -0.045
2024/05/16 17:30, -0.03970833
2024/05/16 17:32, -0.03516666
2024/05/16 17:34, -0.02933333
2024/05/16 17:36, -0.03891667
2024/05/16 17:38, -0.02870833
2024/05/16 17:40, -0.025125
2024/05/16 17:42, -0.04354167
2024/05/16 17:44, -0.03695833
2024/05/16 17:46, -0.039625
2024/05/16 17:48, -0.038875
2024/05/16 17:50, -0.04583333
2024/05/16 17:52, -0.03966666
2024/05/16 17:54, -0.04141666
2024/05/16 17:56, -0.03758333
2024/05/16 17:58, 0.005291666
2024/05/16 18:00, -0.02479167
2024/05/16 18:02, -0.04908333
2024/05/16 18:04, -0.03266666
2024/05/16 18:06, -0.042625
2024/05/16 18:08, -0.04558333
2024/05/16 18:10, -0.04366666
2024/05/16 18:12, -0.04325
2024/05/16 18:14, -0.03341667
2024/05/16 18:16, -0.02904166
2024/05/16 18:18, -0.03470833
2024/05/16 18:20, -0.017375
2024/05/16 18:22, -0.04104166
2024/05/16 18:24, -0.03070833
2024/05/16 18:26, -0.03783333
2024/05/16 18:28, -0.04829166
2024/05/16 18:30, -0.04770833
2024/05/16 18:32, -0.03395833
2024/05/16 18:34, -0.03966666
2024/05/16 18:36, -0.041375
2024/05/16 18:38, 0.0008749993
2024/05/16 18:40, -0.05745833
2024/05/16 18:42, -0.062125
2024/05/16 18:44, -0.03
2024/05/16 18:46, -0.034125
2024/05/16 18:48, -0.03454166
2024/05/16 18:50, -0.005916667
2024/05/16 18:52, -0.04933333
2024/05/16 18:54, -0.04845834
2024/05/16 18:56, -0.015
2024/05/16 18:58, -0.02116667
2024/05/16 19:00, -0.03620833
2024/05/16 19:02, -0.024875
2024/05/16 19:04, -0.0305
2024/05/16 19:06, -0.01233333
2024/05/16 19:08, -0.02395833
2024/05/16 19:10, -0.007791666
2024/05/16 19:12, -0.051875
2024/05/16 19:14, -0.02825
2024/05/16 19:16, -0.03683333
2024/05/16 19:18, -0.02241667
2024/05/16 19:20, -0.03558333
2024/05/16 19:22, -0.01133333
2024/05/16 19:24, -0.03995833
2024/05/16 19:26, -0.04595833
2024/05/16 19:28, -0.04054167
2024/05/16 19:30, -0.046125
2024/05/16 19:32, -0.03420833
2024/05/16 19:34, -0.03429167
2024/05/16 19:36, -0.04
2024/05/16 19:38, -0.04075
2024/05/16 19:40, -0.05033333
2024/05/16 19:42, -0.06145833
2024/05/16 19:44, -0.03745834
2024/05/16 19:46, -0.036875
2024/05/16 19:48, -0.04679166
2024/05/16 19:50, -0.0555
2024/05/16 19:52, -0.03754166
2024/05/16 19:54, -0.0435
2024/05/16 19:56, -0.02716666
2024/05/16 19:58, -0.04225
2024/05/16 20:00, -0.025875
2024/05/16 20:02, -0.035125
2024/05/16 20:04, -0.02225
2024/05/16 20:06, -0.04158333
2024/05/16 20:08, -0.02783333
2024/05/16 20:10, -0.03545833
2024/05/16 20:12, -0.04608333
2024/05/16 20:14, -0.01775
2024/05/16 20:16, -0.06179166
2024/05/16 20:18, -0.014875
2024/05/16 20:20, -0.03525
2024/05/16 20:22, -0.04570833
2024/05/16 20:24, -0.04104166
2024/05/16 20:26, -0.037
2024/05/16 20:28, -0.03320833
2024/05/16 20:30, -0.046625
2024/05/16 20:32, -0.04079166
2024/05/16 20:34, -0.02833333
2024/05/16 20:36, -0.005208332
2024/05/16 20:38, -0.01504167
2024/05/16 20:40, -0.04066666
2024/05/16 20:42, -0.01558333
2024/05/16 20:44, -0.03620833
2024/05/16 20:46, -0.04704166
2024/05/16 20:48, -0.022
2024/05/16 20:50, -0.0285
2024/05/16 20:52, -0.042375
2024/05/16 20:54, -0.05220833
2024/05/16 20:56, -0.014375
2024/05/16 20:58, -0.03595833
2024/05/16 21:00, -0.03616666
2024/05/16 21:02, -0.04166666
2024/05/16 21:04, -0.03020833
2024/05/16 21:06, -0.01325
2024/05/16 21:08, -0.04045833
2024/05/16 21:10, -0.04025
2024/05/16 21:12, -0.02366666
2024/05/16 21:14, -0.02616666
2024/05/16 21:16, -0.05704166
2024/05/16 21:18, -0.052375
2024/05/16 21:20, -0.047875
2024/05/16 21:22, -0.01770833
2024/05/16 21:24, -0.02470833
2024/05/16 21:26, -0.03725
2024/05/16 21:28, -0.008083334
2024/05/16 21:30, -0.02754167
2024/05/16 21:32, -0.03970833
2024/05/16 21:34, -0.0455
2024/05/16 21:36, -0.04479166
2024/05/16 21:38, -0.02116667
2024/05/16 21:40, -0.0275
2024/05/16 21:42, -0.03416666
2024/05/16 21:44, -0.05070833
2024/05/16 21:46, -0.015375
2024/05/16 21:48, -0.03641666
2024/05/16 21:50, -0.04554166
2024/05/16 21:52, -0.04779166
2024/05/16 21:54, -0.03629167
2024/05/16 21:56, -0.03391666
2024/05/16 21:58, -0.03033333
2024/05/16 22:00, -0.02304167
2024/05/16 22:02, -0.02658333
2024/05/16 22:04, -0.029375
2024/05/16 22:06, -0.03175
2024/05/16 22:08, -0.02958333
2024/05/16 22:10, -0.044
2024/05/16 22:12, -0.03558333
2024/05/16 22:14, -0.04295833
2024/05/16 22:16, -0.02641666
2024/05/16 22:18, -0.03470833
2024/05/16 22:20, -0.02829167
2024/05/16 22:22, -0.03520833
2024/05/16 22:24, -0.02995833
2024/05/16 22:26, -0.03379166
2024/05/16 22:28, -0.03533333
2024/05/16 22:30, -0.02391667
2024/05/16 22:32, -0.038625
2024/05/16 22:34, -0.02833333
2024/05/16 22:36, -0.03570834
2024/05/16 22:38, -0.042875
2024/05/16 22:40, -0.04941666
2024/05/16 22:42, -0.02908333
2024/05/16 22:44, -0.03320833
2024/05/16 22:46, -0.015
2024/05/16 22:48, -0.026375
2024/05/16 22:50, -0.03908333
2024/05/16 22:52, -0.01483333
2024/05/16 22:54, -0.04929167
2024/05/16 22:56, -0.04466666
2024/05/16 22:58, -0.045125
2024/05/16 23:00, -0.05791667
2024/05/16 23:02, -0.04104166
2024/05/16 23:04, -0.06333333
2024/05/16 23:06, -0.01633333
2024/05/16 23:08, -0.03666666
2024/05/16 23:10, -0.038125
2024/05/16 23:12, -0.02204167
2024/05/16 23:14, -0.05183333
2024/05/16 23:16, -0.03645833
2024/05/16 23:18, -0.06425
2024/05/16 23:20, -0.029375
2024/05/16 23:22, -0.03495833
2024/05/16 23:24, -0.04579167
2024/05/16 23:26, -0.034
2024/05/16 23:28, -0.01895833
2024/05/16 23:30, -0.05104166
2024/05/16 23:32, -0.03166667
2024/05/16 23:34, -0.035125
2024/05/16 23:36, -0.01358333
2024/05/16 23:38, -0.0575
2024/05/16 23:40, -0.04175
2024/05/16 23:42, -0.04820833
2024/05/16 23:44, -0.04125
2024/05/16 23:46, -0.02545833
2024/05/16 23:48, -0.02716666
2024/05/16 23:50, -0.039375
2024/05/16 23:52, -0.033875
2024/05/16 23:54, -0.02075
2024/05/16 23:56, -0.04325
2024/05/16 23:58, -0.04025
2024/05/17 00:00, -0.06320834
2024/05/17 00:02, -0.04370833
2024/05/17 00:04, -0.041375
2024/05/17 00:06, -0.03020833
2024/05/17 00:08, -0.036375
2024/05/17 00:10, -0.03125
2024/05/17 00:12, -0.03729166
2024/05/17 00:14, -0.04020833
2024/05/17 00:16, -0.031
2024/05/17 00:18, -0.05116666
2024/05/17 00:20, -0.02491667
2024/05/17 00:22, -0.02979167
2024/05/17 00:24, -0.046375
2024/05/17 00:26, -0.03141667
2024/05/17 00:28, -0.02870833
2024/05/17 00:30, -0.04279166
2024/05/17 00:32, -0.034625
2024/05/17 00:34, -0.03441666
2024/05/17 00:36, -0.04058333
2024/05/17 00:38, -0.02904166
2024/05/17 00:40, -0.02091666
2024/05/17 00:42, -0.02466667
2024/05/17 00:44, -0.03395833
2024/05/17 00:46, -0.015625
2024/05/17 00:48, -0.05333333
2024/05/17 00:50, -0.029125
2024/05/17 00:52, -0.03304167
2024/05/17 00:54, -0.029625
2024/05/17 00:56, -0.03104167
2024/05/17 00:58, -0.038625
2024/05/17 01:00, -0.0075
2024/05/17 01:02, -0.01870833
2024/05/17 01:04, -0.058125
2024/05/17 01:06, -0.03716667
2024/05/17 01:08, -0.03795834
2024/05/17 01:10, -0.035125
2024/05/17 01:12, -0.03883333
2024/05/17 01:14, -0.045
2024/05/17 01:16, -0.02979167
2024/05/17 01:18, -0.02129167
2024/05/17 01:20, -0.05741666
2024/05/17 01:22, -0.042375
2024/05/17 01:24, -0.05454166
2024/05/17 01:26, -0.05608333
2024/05/17 01:28, -0.01875
2024/05/17 01:30, -0.03725
2024/05/17 01:32, -0.04054167
2024/05/17 01:34, -0.04091666
2024/05/17 01:36, -0.040375
2024/05/17 01:38, -0.01616667
2024/05/17 01:40, -0.02816666
2024/05/17 01:42, -0.03408333
2024/05/17 01:44, -0.04754166
2024/05/17 01:46, -0.05104166
2024/05/17 01:48, -0.036125
2024/05/17 01:50, -0.03033333
2024/05/17 01:52, -0.032
2024/05/17 01:54, -0.05229166
2024/05/17 01:56, -0.02970833
2024/05/17 01:58, -0.04404166
2024/05/17 02:00, -0.03054167
2024/05/17 02:02, -0.01766667
2024/05/17 02:04, -0.042125
2024/05/17 02:06, -0.04654166
2024/05/17 02:08, -0.02754167
2024/05/17 02:10, -0.03008333
2024/05/17 02:12, -0.03616666
2024/05/17 02:14, -0.04045833
2024/05/17 02:16, -0.025875
2024/05/17 02:18, -0.05920833
2024/05/17 02:20, -0.03583333
2024/05/17 02:22, -0.048375
2024/05/17 02:24, -0.03291667
2024/05/17 02:26, -0.01808333
2024/05/17 02:28, -0.01991667
2024/05/17 02:30, -0.04525
2024/05/17 02:32, -0.03229167
2024/05/17 02:34, -0.0008333335
2024/05/17 02:36, -0.0485
2024/05/17 02:38, -0.03125